SCP
0 0 0 0 0 0 0 0 0 0 0 0 0 0 0 0 0 0 0 0 0 0 0 0 0 0 0 0 0 0 0 0 0 0 0 0 0 0 0 0 0 0 0 0
0 0 0 0 0 0 0 0 0 0 0 0 0 0 0 0 0 0 0 0 0 0 0 0 0 0 0 0 0 0 0 0 0 0 0 0 0 0 0 0 0 0 0 0
0 0 0 0 0 0 0 0 0 0 0 0 0 0 0 0 0 0 0 0 0 0 0 0 0 0 0 0 0 0 0 0 0 0 0 0 0 0 0 0 0 0 0 0
0 0 0 0 0 0 0 0 0 0 0 0 0 0 0 0 0 0 0 0 0 0 0 0 0 0 0 0 0 0 0 0 0 0 0 0 -0 0 0 0 0 0 0 0
0 0 0 0 0 0 0 0 0 0 0 0 0 0 0 0 0 0 0 0 0 0 0 0 0 0 0 0 0 0 0 0 0 0 0 0 0 0 0 0 0 0 0 0
0 0 0 0 0 0 0 0 0 0 0 0 0 0 0 0 0 0 0 0 0 0 0 0 0 0 0 0 0 0 0 0 0 0 0 0 0 0 0 0 0 0 0 0
0 0 0 0 0 0 0 0 0 0 0 0 0 0 0 0 0 0 0 0 0 0 0 0 0 0 0 0 0 0 0 0 0 0 0 0 0 0 0 0 0 0 0 0
0 0 0 0 0 0 0 0 0 0 0 0 0 0 0 0 0 0 0 0 0 0 0 0 0 0 0 0 0 0 0 0 0 0 0 0 0 0 0 0 0 0 0 0
0 0 0 0 0 0 0 0 0 0 0 0 0 0 0 0 0 0 0 0 0 0 0 0 0 0 0 0 0 0 0 0 0 0 0 0 0 0 0 0 0 0 0 0
0 0 0 0 0 0 0 0 0 0 0 0 0 0 0 0 0 0 0 0 0 0 0 0 0 0 0 0 0 0 0 0 0 0 0 0 0 0 0 0 0 0 0 0
0 0 0 0 0 0 0 0 0 0 0 0 0 0 0 0 0 0 0 0 0 0 0 0 0 0 0 0 0 0 0 0 0 0 0 0 0 0 0 0 0 0 0 0
0 0 0 0 0 0 0 0 0 0 0 0 0 0 0 0 0 0 0 0 0 0 0 0 0 0 0 0 0 0 0 0 0 0 0 0 -0 0 0 0 0 0 0 0
0 0 0 0 0 0 0 0 0 0 0 0 0 0 0 0 0 0 0 0 0 0 0 0 0 0 0 0 0 0 0 0 0 0 0 -0 -0 0 0 0 0 0 0 0
0 0 0 0 0 0 0 0 0 0 0 0 0 0 0 0 0 0 0 0 0 0 0 0 0 0 0 0 0 0 0 0 0 0 -0 -0 -0 -0 0 0 0 0 0 0
0 0 0 0 0 0 0 0 0 0 0 0 0 0 0 0 0 0 0 0 0 0 0 0 0 0 0 0 0 0 0 0 0 0 0 0 0 0 0 0 0 0 0 0
0 0 0 0 0 0 0 0 0 0 0 0 0 0 0 0 0 0 0 0 0 0 0 0 0 0 0 0 0 0 -0 0 0 0 0 0 0 0 0 0 0 0 0 0
0 0 0 0 0 0 0 0 0 0 0 0 0 0 0 0 0 0 0 0 0 0 0 0 0 0 0 0 0 0 -0 -0 -0 0 0 0 0 0 0 0 0 0 0 0
0 0 0 0 0 0 0 0 0 0 0 0 0 0 0 0 0 0 0 0 0 0 0 0 0 0 0 0 0 0 0 0 0 -0 -0 0 0 0 0 0 0 0 0 0
0 0 0 0 0 0 0 0 0 0 0 0 0 0 0 0 0 0 0 0 0 0 0 0 0 0 -0 -0 0 0 0 0 0 -0 -0 0 0 0 0 0 0 0 0 0
0 0 0 0 0 0 0 0 0 0 0 0 0 0 0 0 0 0 0 0 0 0 0 0 0 -0 0 -0 0 0 0 0 0 0 0 -0 -0 -0 0 0 0 0 0 0
0 0 0 0 0 0 0 0 0 0 0 0 0 0 0 0 0 0 0 0 0 0 0 0 -0 -0 0 0 0 0 -0 0 -0 0 -0 -0 0 -0 0 0 0 0 0 0
0 0 0 0 0 0 0 0 0 0 0 0 0 0 0 0 0 0 0 0 0 0 0 0 -0 -0 0 0 0 0 0 0 0 0 0 -0 0 0 0 0 0 0 0 0
0 0 0 0 0 0 0 0 0 0 0 0 0 0 0 0 0 0 0 0 0 0 0 0 -0 0 0 0 0 0 0 -0 0 0 0 -0 -0 0 0 0 0 0 0 0
0 0 0 0 0 0 0 0 0 0 0 0 0 0 0 0 0 0 0 0 0 0 0 0 0 0 0 0 0 0 0 0 0 0 0 0 0 0 0 0 0 -0 -0 -0
0 0 0 0 0 0 0 0 0 0 0 0 0 0 0 0 0 0 0 0 0 0 0 0 0 0 0 0 0 0 0 0 0 0 0 0 0 0 0 0 0 0 -0 -0
0 0 0 0 0 0 0 0 0 0 0 0 0 0 0 0 0 0 0 0 0 0 0 0 0 0 0 0 0 0 0 0 0 0 0 0 0 0 0 0 0 0 0 -0
0 0 0 0 0 0 0 0 0 0 0 0 0 0 0 0 0 0 0 0 0 0 -0 0 -0 0 0 0 0 0 0 0 0 0 0 0 0 0 0 0 0 0 0 0
Wind_Speed_500mb
62 60 59 54 56 73 59 38 8 18 32 8 2 7 10 11 10 8 4 6 5 7 13 8 7 10 6 13 13 6 7 4 10 6 4 7 6 4 4 5 3 10 11 18
72 58 57 55 81 83 75 43 18 25 37 7 6 2 5 11 12 10 10 7 2 3 9 5 7 8 6 15 12 10 11 3 10 3 7 6 7 9 10 2 3 19 8 17
60 65 52 50 90 89 84 26 8 11 24 12 5 10 8 10 10 8 7 8 9 7 4 2 8 11 9 13 11 11 11 6 9 11 8 4 14 11 14 8 7 10 22 38
59 70 61 51 85 86 89 20 12 21 11 16 12 3 14 14 14 7 14 5 17 13 8 6 9 7 8 7 11 9 7 9 10 23 35 31 35 38 28 29 24 15 19 26
61 70 70 56 103 87 77 37 21 20 17 14 23 7 13 20 10 19 11 11 20 19 10 9 15 17 10 9 13 14 7 5 6 10 7 7 18 32 33 33 31 36 45 51
70 70 76 51 89 108 59 35 39 34 28 18 14 17 14 17 22 14 6 24 13 20 17 11 9 9 15 21 17 15 10 4 4 9 13 23 14 15 24 12 20 11 16 22
88 73 82 85 117 95 81 66 57 22 9 14 18 10 22 18 24 12 11 20 10 12 26 34 23 26 22 13 12 11 11 5 1 9 13 7 2 4 2 14 21 24 23 28
75 83 87 97 79 103 102 68 62 27 8 28 15 18 14 16 13 7 12 9 11 40 21 7 4 2 4 7 6 3 9 7 2 5 5 19 8 7 10 10 9 9 13 20
67 86 85 105 90 102 106 66 76 47 19 26 33 27 34 12 12 4 5 13 49 21 7 4 9 9 4 6 5 2 11 8 2 4 4 9 1 7 3 8 7 12 11 14
59 75 94 91 91 81 115 95 86 57 26 22 61 18 28 26 20 8 13 18 13 11 4 5 8 8 4 9 19 14 9 8 16 10 10 21 20 12 8 3 1 9 8 5
55 66 82 90 95 98 123 92 85 88 24 37 68 59 49 34 36 12 27 16 9 6 9 9 8 10 12 6 10 15 19 19 11 7 8 15 28 18 12 4 12 6 6 2
59 58 85 85 98 94 98 76 83 85 44 17 64 56 58 63 76 55 58 12 18 26 7 4 7 6 6 5 6 7 10 13 10 23 14 5 41 5 33 18 10 8 2 4
34 70 80 83 100 94 95 89 84 90 43 14 42 46 52 62 55 59 29 21 28 21 17 16 5 7 9 10 13 11 13 18 8 3 11 43 56 59 47 35 34 27 27 22
48 56 59 84 94 88 98 97 89 92 28 13 11 28 41 50 52 55 56 28 50 25 24 7 6 6 17 6 1 7 7 27 11 13 31 43 58 53 49 34 40 32 27 20
48 53 46 83 99 89 94 111 107 102 62 12 13 22 19 35 44 50 47 34 47 31 15 5 6 7 9 3 2 11 26 17 15 15 23 11 11 12 13 25 46 41 35 24
47 38 46 89 88 96 89 25 92 101 75 17 6 10 14 24 29 37 40 40 30 22 12 7 7 9 8 7 8 14 60 61 63 15 26 22 14 13 13 18 28 44 39 26
63 33 63 80 95 79 93 33 62 109 81 24 9 6 12 33 35 23 30 35 18 10 10 5 8 9 9 3 10 8 45 52 60 59 38 22 29 12 17 10 28 39 33 30
65 28 61 88 88 78 78 44 48 112 53 22 10 4 12 26 12 10 14 12 14 12 7 8 7 8 5 10 27 51 46 46 51 63 65 44 20 33 25 24 29 37 38 34
56 11 74 61 92 30 47 66 87 89 29 22 11 16 11 28 12 12 11 11 5 6 4 6 10 7 13 25 37 44 53 40 26 36 66 67 55 33 37 37 39 40 38 37
66 40 30 23 53 76 112 58 22 13 11 12 6 18 9 24 9 5 12 7 6 7 4 8 8 10 53 70 78 69 54 25 48 34 46 68 73 68 58 53 46 43 39 34
41 20 6 86 109 60 15 17 15 12 7 12 14 14 17 18 8 7 3 6 4 7 6 7 6 9 18 82 108 116 110 80 53 47 41 30 54 65 68 62 49 45 45 42
8 27 79 57 21 11 10 8 10 8 13 17 12 18 23 19 14 10 6 5 3 9 9 3 8 13 54 28 28 29 51 81 98 84 47 43 29 40 48 58 55 49 45 40
50 29 10 9 8 10 10 13 8 10 13 30 31 15 20 15 9 12 5 9 8 12 3 8 13 11 7 20 23 34 29 37 54 86 87 53 37 34 45 47 52 49 48 46
7 7 9 4 8 6 7 11 12 17 38 69 45 23 10 12 7 6 9 3 4 6 7 13 6 16 10 16 25 29 24 34 35 61 84 78 52 39 40 45 44 52 55 51
4 7 10 8 11 13 17 37 33 30 80 75 32 23 17 5 10 4 10 7 10 12 11 7 15 8 11 10 14 18 19 24 32 46 76 86 66 48 39 43 49 49 47 50
5 1 7 15 12 7 10 29 44 61 80 44 17 10 9 6 12 11 16 16 14 8 8 25 9 14 16 13 16 18 17 22 26 38 60 76 70 53 41 44 46 47 47 45
10 4 23 14 25 13 19 39 41 86 55 8 8 12 6 9 3 7 10 10 7 16 26 20 13 8 17 17 20 26 12 20 25 39 56 70 63 55 48 47 43 42 41 39
Wind_Direction_500mb
236 238 243 252 255 218 202 183 145 192 175 164 254 185 188 155 165 199 151 123 98 157 171 151 205 209 225 166 162 200 188 205 269 251 139 274 230 216 217 248 267 262 275 274
232 234 238 246 242 224 192 165 131 173 178 178 212 257 171 188 153 203 171 158 82 152 168 185 204 208 162 165 164 190 184 226 303 176 156 171 222 193 207 111 275 246 274 277
236 229 231 235 237 224 194 157 127 147 195 251 190 168 199 186 197 157 148 127 117 139 144 282 180 213 180 186 187 183 176 193 234 248 301 4 266 237 230 162 237 267 246 283
237 225 223 230 235 233 198 171 174 172 172 223 227 243 169 151 173 206 179 159 216 176 151 167 218 178 158 173 194 185 198 254 217 263 270 277 274 268 250 228 222 240 287 301
236 224 216 222 221 235 194 160 154 155 157 143 172 212 221 180 164 160 206 210 193 188 172 197 193 159 196 175 178 177 178 267 298 280 282 258 271 259 250 241 242 255 268 280
233 227 217 214 224 216 206 198 169 173 164 146 159 209 217 205 136 221 205 195 134 202 219 142 99 104 121 158 168 171 169 230 335 269 340 310 267 240 199 186 193 199 259 297
237 228 223 213 213 221 215 202 181 166 168 177 190 161 192 182 196 153 172 168 158 155 151 121 102 73 70 107 92 139 147 153 278 289 312 270 43 277 179 242 257 227 267 281
230 229 218 220 220 219 213 203 186 182 150 186 156 167 128 106 145 99 135 158 175 148 136 89 106 15 70 355 357 246 175 159 203 286 273 299 258 182 178 191 279 206 239 302
230 231 220 216 220 222 214 215 205 189 139 208 175 162 173 155 162 110 90 137 150 156 92 143 207 227 172 190 65 86 166 140 234 158 242 259 55 150 93 140 264 184 242 307
238 229 228 217 220 224 212 214 214 201 194 169 176 170 177 160 148 138 134 144 174 168 153 166 195 223 329 200 163 168 170 195 222 196 251 279 246 152 145 246 75 183 214 281
239 230 234 219 216 219 211 211 213 203 210 190 194 190 161 159 164 157 150 113 186 146 197 196 191 207 203 188 143 174 176 166 194 155 221 275 167 138 205 147 147 139 185 234
239 232 236 222 214 217 223 212 214 217 213 194 194 196 203 210 207 180 167 183 157 172 157 211 122 173 178 174 218 187 225 210 187 199 217 289 197 238 201 187 198 202 200 321
270 235 227 219 212 215 219 204 204 195 199 163 185 202 202 206 212 205 159 202 176 195 190 152 144 213 161 176 228 193 225 191 235 187 247 237 241 244 243 236 247 263 274 285
267 230 231 211 207 212 219 201 199 190 170 133 178 195 196 205 209 207 206 197 181 177 179 159 163 206 202 199 80 215 180 157 192 258 279 267 262 257 251 253 246 251 235 214
259 234 220 210 206 207 207 202 209 204 184 134 142 166 190 195 199 203 202 185 176 163 166 171 207 147 162 92 268 234 185 188 186 231 230 234 238 234 233 226 232 228 203 203
257 259 220 202 201 200 193 156 188 196 188 125 132 131 161 169 190 193 183 171 167 187 184 183 182 187 211 185 242 240 210 219 225 239 225 222 243 224 240 252 215 196 203 219
264 279 204 205 202 206 183 193 194 183 179 159 109 99 136 148 147 145 156 161 174 177 165 166 152 193 201 198 242 164 229 230 227 232 234 233 228 235 228 223 187 193 206 204
267 266 201 195 200 200 185 182 182 182 168 130 123 116 148 156 129 121 131 125 150 201 185 165 186 176 217 251 247 249 245 243 237 232 229 232 238 219 209 196 185 188 195 204
282 257 196 189 176 162 155 159 164 173 168 127 145 148 165 167 118 124 118 141 172 209 219 219 169 178 223 232 237 247 245 225 217 240 229 228 228 224 212 208 204 206 208 212
281 234 188 142 157 145 137 129 147 146 118 118 105 132 126 145 123 113 116 156 170 192 182 159 221 255 246 246 254 258 257 251 226 218 210 216 224 222 217 217 218 221 223 222
274 164 94 136 144 138 115 132 168 135 87 136 134 140 123 160 138 135 162 151 151 203 160 211 241 265 238 245 244 246 250 245 241 237 246 251 237 226 220 219 215 213 212 216
245 143 135 144 154 113 122 133 104 131 161 158 136 131 119 125 141 111 143 132 156 219 121 197 261 244 241 233 218 223 238 238 235 233 231 235 244 237 233 225 218 212 212 214
140 151 143 118 61 98 132 134 136 127 167 163 153 135 114 116 123 94 135 153 180 123 160 234 237 268 200 186 255 245 231 222 219 219 221 227 222 221 214 216 218 214 213 214
208 123 89 107 148 213 208 161 131 128 147 140 141 106 115 128 114 132 131 55 150 174 226 235 248 261 282 252 258 253 244 222 218 211 209 213 215 219 216 212 211 213 214 215
238 155 169 173 116 66 108 109 107 125 142 140 115 87 95 117 111 73 115 139 218 221 228 227 257 314 304 297 293 292 254 227 223 212 206 207 211 219 214 209 210 210 213 217
252 78 85 101 83 134 118 114 119 142 145 140 97 111 130 156 130 152 215 161 209 234 216 220 182 53 23 348 343 328 279 229 225 219 206 203 207 214 216 213 206 209 212 215
344 23 112 125 97 133 137 140 143 153 154 157 137 117 156 112 169 222 188 205 215 209 202 165 164 12 347 347 353 356 307 250 231 207 201 193 201 206 208 210 203 203 209 209
Wind_Speed_850mb
62 60 59 54 56 73 59 38 8 18 32 8 2 7 10 11 10 8 4 6 5 7 13 8 7 10 6 13 13 6 7 4 10 6 4 7 6 4 4 5 3 10 11 18
72 58 57 55 81 83 75 43 18 25 37 7 6 2 5 11 12 10 10 7 2 3 9 5 7 8 6 15 12 10 11 3 10 3 7 6 7 9 10 2 3 19 8 17
60 65 52 50 90 89 84 26 8 11 24 12 5 10 8 10 10 8 7 8 9 7 4 2 8 11 9 13 11 11 11 6 9 11 8 4 14 11 14 8 7 10 22 38
59 70 61 51 85 86 89 20 12 21 11 16 12 3 14 14 14 7 14 5 17 13 8 6 9 7 8 7 11 9 7 9 10 23 35 31 35 38 28 29 24 15 19 26
61 70 70 56 103 87 77 37 21 20 17 14 23 7 13 20 10 19 11 11 20 19 10 9 15 17 10 9 13 14 7 5 6 10 7 7 18 32 33 33 31 36 45 51
70 70 76 51 89 108 59 35 39 34 28 18 14 17 14 17 22 14 6 24 13 20 17 11 9 9 15 21 17 15 10 4 4 9 13 23 14 15 24 12 20 11 16 22
88 73 82 85 117 95 81 66 57 22 9 14 18 10 22 18 24 12 11 20 10 12 26 34 23 26 22 13 12 11 11 5 1 9 13 7 2 4 2 14 21 24 23 28
75 83 87 97 79 103 102 68 62 27 8 28 15 18 14 16 13 7 12 9 11 40 21 7 4 2 4 7 6 3 9 7 2 5 5 19 8 7 10 10 9 9 13 20
67 86 85 105 90 102 106 66 76 47 19 26 33 27 34 12 12 4 5 13 49 21 7 4 9 9 4 6 5 2 11 8 2 4 4 9 1 7 3 8 7 12 11 14
59 75 94 91 91 81 115 95 86 57 26 22 61 18 28 26 20 8 13 18 13 11 4 5 8 8 4 9 19 14 9 8 16 10 10 21 20 12 8 3 1 9 8 5
55 66 82 90 95 98 123 92 85 88 24 37 68 59 49 34 36 12 27 16 9 6 9 9 8 10 12 6 10 15 19 19 11 7 8 15 28 18 12 4 12 6 6 2
59 58 85 85 98 94 98 76 83 85 44 17 64 56 58 63 76 55 58 12 18 26 7 4 7 6 6 5 6 7 10 13 10 23 14 5 41 5 33 18 10 8 2 4
34 70 80 83 100 94 95 89 84 90 43 14 42 46 52 62 55 59 29 21 28 21 17 16 5 7 9 10 13 11 13 18 8 3 11 43 56 59 47 35 34 27 27 22
48 56 59 84 94 88 98 97 89 92 28 13 11 28 41 50 52 55 56 28 50 25 24 7 6 6 17 6 1 7 7 27 11 13 31 43 58 53 49 34 40 32 27 20
48 53 46 83 99 89 94 111 107 102 62 12 13 22 19 35 44 50 47 34 47 31 15 5 6 7 9 3 2 11 26 17 15 15 23 11 11 12 13 25 46 41 35 24
47 38 46 89 88 96 89 25 92 101 75 17 6 10 14 24 29 37 40 40 30 22 12 7 7 9 8 7 8 14 60 61 63 15 26 22 14 13 13 18 28 44 39 26
63 33 63 80 95 79 93 33 62 109 81 24 9 6 12 33 35 23 30 35 18 10 10 5 8 9 9 3 10 8 45 52 60 59 38 22 29 12 17 10 28 39 33 30
65 28 61 88 88 78 78 44 48 112 53 22 10 4 12 26 12 10 14 12 14 12 7 8 7 8 5 10 27 51 46 46 51 63 65 44 20 33 25 24 29 37 38 34
56 11 74 61 92 30 47 66 87 89 29 22 11 16 11 28 12 12 11 11 5 6 4 6 10 7 13 25 37 44 53 40 26 36 66 67 55 33 37 37 39 40 38 37
66 40 30 23 53 76 112 58 22 13 11 12 6 18 9 24 9 5 12 7 6 7 4 8 8 10 53 70 78 69 54 25 48 34 46 68 73 68 58 53 46 43 39 34
41 20 6 86 109 60 15 17 15 12 7 12 14 14 17 18 8 7 3 6 4 7 6 7 6 9 18 82 108 116 110 80 53 47 41 30 54 65 68 62 49 45 45 42
8 27 79 57 21 11 10 8 10 8 13 17 12 18 23 19 14 10 6 5 3 9 9 3 8 13 54 28 28 29 51 81 98 84 47 43 29 40 48 58 55 49 45 40
50 29 10 9 8 10 10 13 8 10 13 30 31 15 20 15 9 12 5 9 8 12 3 8 13 11 7 20 23 34 29 37 54 86 87 53 37 34 45 47 52 49 48 46
7 7 9 4 8 6 7 11 12 17 38 69 45 23 10 12 7 6 9 3 4 6 7 13 6 16 10 16 25 29 24 34 35 61 84 78 52 39 40 45 44 52 55 51
4 7 10 8 11 13 17 37 33 30 80 75 32 23 17 5 10 4 10 7 10 12 11 7 15 8 11 10 14 18 19 24 32 46 76 86 66 48 39 43 49 49 47 50
5 1 7 15 12 7 10 29 44 61 80 44 17 10 9 6 12 11 16 16 14 8 8 25 9 14 16 13 16 18 17 22 26 38 60 76 70 53 41 44 46 47 47 45
10 4 23 14 25 13 19 39 41 86 55 8 8 12 6 9 3 7 10 10 7 16 26 20 13 8 17 17 20 26 12 20 25 39 56 70 63 55 48 47 43 42 41 39
Wind_Direction_850mb
236 238 243 252 255 218 202 183 145 192 175 164 254 185 188 155 165 199 151 123 98 157 171 151 205 209 225 166 162 200 188 205 269 251 139 274 230 216 217 248 267 262 275 274
232 234 238 246 242 224 192 165 131 173 178 178 212 257 171 188 153 203 171 158 82 152 168 185 204 208 162 165 164 190 184 226 303 176 156 171 222 193 207 111 275 246 274 277
236 229 231 235 237 224 194 157 127 147 195 251 190 168 199 186 197 157 148 127 117 139 144 282 180 213 180 186 187 183 176 193 234 248 301 4 266 237 230 162 237 267 246 283
237 225 223 230 235 233 198 171 174 172 172 223 227 243 169 151 173 206 179 159 216 176 151 167 218 178 158 173 194 185 198 254 217 263 270 277 274 268 250 228 222 240 287 301
236 224 216 222 221 235 194 160 154 155 157 143 172 212 221 180 164 160 206 210 193 188 172 197 193 159 196 175 178 177 178 267 298 280 282 258 271 259 250 241 242 255 268 280
233 227 217 214 224 216 206 198 169 173 164 146 159 209 217 205 136 221 205 195 134 202 219 142 99 104 121 158 168 171 169 230 335 269 340 310 267 240 199 186 193 199 259 297
237 228 223 213 213 221 215 202 181 166 168 177 190 161 192 182 196 153 172 168 158 155 151 121 102 73 70 107 92 139 147 153 278 289 312 270 43 277 179 242 257 227 267 281
230 229 218 220 220 219 213 203 186 182 150 186 156 167 128 106 145 99 135 158 175 148 136 89 106 15 70 355 357 246 175 159 203 286 273 299 258 182 178 191 279 206 239 302
230 231 220 216 220 222 214 215 205 189 139 208 175 162 173 155 162 110 90 137 150 156 92 143 207 227 172 190 65 86 166 140 234 158 242 259 55 150 93 140 264 184 242 307
238 229 228 217 220 224 212 214 214 201 194 169 176 170 177 160 148 138 134 144 174 168 153 166 195 223 329 200 163 168 170 195 222 196 251 279 246 152 145 246 75 183 214 281
239 230 234 219 216 219 211 211 213 203 210 190 194 190 161 159 164 157 150 113 186 146 197 196 191 207 203 188 143 174 176 166 194 155 221 275 167 138 205 147 147 139 185 234
239 232 236 222 214 217 223 212 214 217 213 194 194 196 203 210 207 180 167 183 157 172 157 211 122 173 178 174 218 187 225 210 187 199 217 289 197 238 201 187 198 202 200 321
270 235 227 219 212 215 219 204 204 195 199 163 185 202 202 206 212 205 159 202 176 195 190 152 144 213 161 176 228 193 225 191 235 187 247 237 241 244 243 236 247 263 274 285
267 230 231 211 207 212 219 201 199 190 170 133 178 195 196 205 209 207 206 197 181 177 179 159 163 206 202 199 80 215 180 157 192 258 279 267 262 257 251 253 246 251 235 214
259 234 220 210 206 207 207 202 209 204 184 134 142 166 190 195 199 203 202 185 176 163 166 171 207 147 162 92 268 234 185 188 186 231 230 234 238 234 233 226 232 228 203 203
257 259 220 202 201 200 193 156 188 196 188 125 132 131 161 169 190 193 183 171 167 187 184 183 182 187 211 185 242 240 210 219 225 239 225 222 243 224 240 252 215 196 203 219
264 279 204 205 202 206 183 193 194 183 179 159 109 99 136 148 147 145 156 161 174 177 165 166 152 193 201 198 242 164 229 230 227 232 234 233 228 235 228 223 187 193 206 204
267 266 201 195 200 200 185 182 182 182 168 130 123 116 148 156 129 121 131 125 150 201 185 165 186 176 217 251 247 249 245 243 237 232 229 232 238 219 209 196 185 188 195 204
282 257 196 189 176 162 155 159 164 173 168 127 145 148 165 167 118 124 118 141 172 209 219 219 169 178 223 232 237 247 245 225 217 240 229 228 228 224 212 208 204 206 208 212
281 234 188 142 157 145 137 129 147 146 118 118 105 132 126 145 123 113 116 156 170 192 182 159 221 255 246 246 254 258 257 251 226 218 210 216 224 222 217 217 218 221 223 222
274 164 94 136 144 138 115 132 168 135 87 136 134 140 123 160 138 135 162 151 151 203 160 211 241 265 238 245 244 246 250 245 241 237 246 251 237 226 220 219 215 213 212 216
245 143 135 144 154 113 122 133 104 131 161 158 136 131 119 125 141 111 143 132 156 219 121 197 261 244 241 233 218 223 238 238 235 233 231 235 244 237 233 225 218 212 212 214
140 151 143 118 61 98 132 134 136 127 167 163 153 135 114 116 123 94 135 153 180 123 160 234 237 268 200 186 255 245 231 222 219 219 221 227 222 221 214 216 218 214 213 214
208 123 89 107 148 213 208 161 131 128 147 140 141 106 115 128 114 132 131 55 150 174 226 235 248 261 282 252 258 253 244 222 218 211 209 213 215 219 216 212 211 213 214 215
238 155 169 173 116 66 108 109 107 125 142 140 115 87 95 117 111 73 115 139 218 221 228 227 257 314 304 297 293 292 254 227 223 212 206 207 211 219 214 209 210 210 213 217
252 78 85 101 83 134 118 114 119 142 145 140 97 111 130 156 130 152 215 161 209 234 216 220 182 53 23 348 343 328 279 229 225 219 206 203 207 214 216 213 206 209 212 215
344 23 112 125 97 133 137 140 143 153 154 157 137 117 156 112 169 222 188 205 215 209 202 165 164 12 347 347 353 356 307 250 231 207 201 193 201 206 208 210 203 203 209 209